Voltar ao catálogo

STARLINK-4370

AtivoComunicaçõesSSO
NORAD 53231·PAYLOAD·🇺🇸 United States

Lançado Jul 22, 2022 de Vandenberg Space Force Base

Loading…

Próximas Passagens (próximas 24 horas)

TLE

AtualizadoSource: CelesTrak SupGP

Época: Sep 15, 2026, 01:31 UTC

1 53231C 22084AU  26258.06368056  .00043875  00000+0  13603-2 0  2586
2 53231  97.2838 313.8622 0001355  85.1691 218.8591 15.33456571    17

Acompanhe STARLINK-4370 em tempo real com AllMySat

Download on the App Store